CGMPW OESH-OMDB

Flight info

Callsign CGMPW
Flight time 1h 57m
Altitude 45000
Route LORID DCT DB531 DCT DB525 DCT DB506 DCT ULDOT DCT SEDPO DCT MODUS
Aircraft PC24/L-SBDGIRWY/LB2

Departure

Time 2026-04-30 09:00
Airport Sharurah Domestic Airport (OESH)

Arrival

Time 2026-04-30 10:57
Airport Dubai International Airport (OMDB)
Time Latitude Longitude Altitude Speed Heading
2026-04-30 09:00 17.56126 47.11908 12466 ft 331 kts 41°
2026-04-30 09:00 17.57864 47.13544 13370 ft 339 kts 42°
2026-04-30 09:00 17.59261 47.14874 14081 ft 344 kts 42°
2026-04-30 09:00 17.60906 47.16451 14916 ft 350 kts 42°
2026-04-30 09:01 17.62717 47.18183 15814 ft 354 kts 42°
2026-04-30 09:01 17.64525 47.19911 16700 ft 358 kts 42°
2026-04-30 09:01 17.66373 47.21676 17596 ft 360 kts 42°
2026-04-30 09:01 17.68233 47.23445 18490 ft 362 kts 42°
2026-04-30 09:02 17.71956 47.27017 20277 ft 362 kts 42°
2026-04-30 09:02 17.73820 47.28801 21167 ft 361 kts 42°
2026-04-30 09:02 17.75677 47.30575 22061 ft 359 kts 42°
2026-04-30 09:03 17.77517 47.32338 22949 ft 357 kts 42°
2026-04-30 09:03 17.79341 47.34086 23835 ft 353 kts 42°
2026-04-30 09:03 17.81123 47.35793 24709 ft 349 kts 42°
2026-04-30 09:03 17.82906 47.37501 25591 ft 344 kts 42°
2026-04-30 09:04 17.84658 47.39181 26472 ft 338 kts 42°
2026-04-30 09:04 17.86378 47.40829 27349 ft 331 kts 42°
2026-04-30 09:04 17.88059 47.42443 28223 ft 324 kts 42°
2026-04-30 09:04 17.89699 47.44015 29093 ft 315 kts 42°
2026-04-30 09:05 17.91292 47.45545 29956 ft 306 kts 42°
2026-04-30 09:05 17.92833 47.47023 30817 ft 295 kts 42°
2026-04-30 09:05 17.93825 47.47976 31384 ft 287 kts 42°
2026-04-30 09:05 17.95267 47.49359 32233 ft 274 kts 42°
2026-04-30 09:06 17.96635 47.50675 33068 ft 259 kts 42°
2026-04-30 09:06 17.97921 47.51910 33884 ft 242 kts 42°
2026-04-30 09:06 17.99116 47.53057 34679 ft 223 kts 42°
2026-04-30 09:06 18.00210 47.54110 35425 ft 203 kts 42°
2026-04-30 09:07 18.01271 47.55044 35825 ft 200 kts 34°
2026-04-30 09:07 18.02554 47.55779 35759 ft 221 kts 25°
2026-04-30 09:07 18.03830 47.56657 36112 ft 219 kts 40°
2026-04-30 09:07 18.05010 47.57759 35821 ft 250 kts 43°
2026-04-30 09:08 18.06253 47.59200 35770 ft 271 kts 54°
2026-04-30 09:08 18.07355 47.60834 35974 ft 279 kts 52°
2026-04-30 09:08 18.08667 47.62389 36106 ft 290 kts 43°
2026-04-30 09:08 18.10221 47.63799 36230 ft 300 kts 39°
2026-04-30 09:09 18.11841 47.65255 36344 ft 311 kts 41°
2026-04-30 09:09 18.13459 47.66831 36453 ft 321 kts 43°
2026-04-30 09:09 18.15116 47.68464 36558 ft 331 kts 43°
2026-04-30 09:09 18.16840 47.70123 36659 ft 340 kts 42°
2026-04-30 09:10 18.20408 47.73548 36854 ft 358 kts 42°
2026-04-30 09:10 18.22258 47.75337 36958 ft 365 kts 42°
2026-04-30 09:10 18.24143 47.77157 37126 ft 370 kts 42°
2026-04-30 09:11 18.26058 47.79003 37285 ft 375 kts 42°
2026-04-30 09:11 18.27996 47.80873 37441 ft 380 kts 42°
2026-04-30 09:11 18.29954 47.82764 37601 ft 384 kts 42°
2026-04-30 09:11 18.31931 47.84674 37758 ft 388 kts 42°
2026-04-30 09:12 18.33906 47.86582 37911 ft 391 kts 42°
2026-04-30 09:12 18.35915 47.88524 38065 ft 394 kts 42°
2026-04-30 09:12 18.37943 47.90485 38219 ft 396 kts 42°
2026-04-30 09:12 18.39980 47.92454 38371 ft 399 kts 42°
2026-04-30 09:13 18.42027 47.94435 38525 ft 401 kts 42°
2026-04-30 09:13 18.44088 47.96430 38675 ft 403 kts 42°
2026-04-30 09:13 18.46164 47.98440 38826 ft 404 kts 42°
2026-04-30 09:13 18.48238 48.00449 38977 ft 404 kts 42°
2026-04-30 09:14 18.50309 48.02454 39123 ft 403 kts 42°
2026-04-30 09:14 18.52341 48.04425 39266 ft 402 kts 42°
2026-04-30 09:14 18.54401 48.06421 39411 ft 401 kts 42°
2026-04-30 09:14 18.56447 48.08405 39561 ft 400 kts 42°
2026-04-30 09:15 18.58498 48.10395 39702 ft 400 kts 42°
2026-04-30 09:15 18.60549 48.12386 39851 ft 402 kts 42°
2026-04-30 09:15 18.62609 48.14386 40001 ft 403 kts 42°
2026-04-30 09:15 18.64657 48.16374 40146 ft 390 kts 42°
2026-04-30 09:16 18.66629 48.18290 40268 ft 385 kts 42°
2026-04-30 09:16 18.68607 48.20213 40410 ft 388 kts 42°
2026-04-30 09:16 18.70600 48.22149 40560 ft 390 kts 42°
2026-04-30 09:16 18.72600 48.24095 40712 ft 392 kts 42°
2026-04-30 09:17 18.74612 48.26052 40869 ft 394 kts 42°
2026-04-30 09:17 18.76613 48.27999 41002 ft 396 kts 42°
2026-04-30 09:17 18.80720 48.31998 41012 ft 406 kts 42°
2026-04-30 09:18 18.84921 48.36091 41013 ft 415 kts 42°
2026-04-30 09:18 18.89181 48.40244 41011 ft 415 kts 43°
2026-04-30 09:19 18.93406 48.44367 41003 ft 411 kts 43°
2026-04-30 09:19 18.97595 48.48457 41003 ft 414 kts 43°
2026-04-30 09:20 19.01845 48.52609 41008 ft 417 kts 43°
2026-04-30 09:20 19.06095 48.56765 41011 ft 416 kts 43°
2026-04-30 09:21 19.10340 48.60919 41006 ft 414 kts 43°
2026-04-30 09:21 19.14567 48.65058 41005 ft 413 kts 43°
2026-04-30 09:22 19.18758 48.69165 41004 ft 413 kts 43°
2026-04-30 09:22 19.22963 48.73289 41002 ft 412 kts 43°
2026-04-30 09:23 19.27166 48.77414 41001 ft 411 kts 43°
2026-04-30 09:23 19.31356 48.81529 41000 ft 411 kts 43°
2026-04-30 09:24 19.35568 48.85669 41003 ft 414 kts 43°
2026-04-30 09:24 19.39803 48.89835 41006 ft 416 kts 43°
2026-04-30 09:25 19.44023 48.93988 41012 ft 416 kts 43°
2026-04-30 09:25 19.48247 48.98149 41007 ft 413 kts 43°
2026-04-30 09:26 19.52442 49.02284 41001 ft 410 kts 43°
2026-04-30 09:26 19.56607 49.06392 40996 ft 408 kts 43°
2026-04-30 09:27 19.60745 49.10478 40991 ft 406 kts 43°
2026-04-30 09:27 19.64855 49.14538 40991 ft 404 kts 43°
2026-04-30 09:28 19.68990 49.18626 40992 ft 403 kts 43°
2026-04-30 09:28 19.73069 49.22662 40993 ft 402 kts 43°
2026-04-30 09:29 19.77145 49.26698 40994 ft 401 kts 43°
2026-04-30 09:29 19.81046 49.30563 40992 ft 400 kts 43°
2026-04-30 09:30 19.85116 49.34600 40994 ft 400 kts 43°
2026-04-30 09:30 19.89148 49.38600 40993 ft 399 kts 43°
2026-04-30 09:31 19.93206 49.42630 40993 ft 398 kts 43°
2026-04-30 09:31 19.97260 49.46659 40993 ft 398 kts 43°
2026-04-30 09:32 20.01276 49.50652 40992 ft 397 kts 43°
2026-04-30 09:32 20.05322 49.54679 40992 ft 397 kts 43°
2026-04-30 09:33 20.09357 49.58696 40994 ft 397 kts 43°
2026-04-30 09:33 20.13385 49.62712 40993 ft 396 kts 43°
2026-04-30 09:34 20.17391 49.66707 40993 ft 396 kts 43°
2026-04-30 09:34 20.21411 49.70719 40993 ft 396 kts 43°
2026-04-30 09:35 20.25431 49.74733 40993 ft 396 kts 43°
2026-04-30 09:35 20.29493 49.78796 41005 ft 405 kts 43°
2026-04-30 09:36 20.33648 49.82952 41010 ft 414 kts 43°
2026-04-30 09:36 20.37859 49.87168 41012 ft 421 kts 43°
2026-04-30 09:37 20.42158 49.91476 41012 ft 424 kts 43°
2026-04-30 09:37 20.46419 49.95749 41009 ft 421 kts 43°
2026-04-30 09:38 20.50671 50.00016 41001 ft 418 kts 43°
2026-04-30 09:38 20.54925 50.04289 41004 ft 420 kts 43°
2026-04-30 09:39 20.59196 50.08582 41004 ft 423 kts 43°
2026-04-30 09:39 20.63486 50.12898 41011 ft 424 kts 43°
2026-04-30 09:40 20.67745 50.17187 41005 ft 422 kts 43°
2026-04-30 09:40 20.72007 50.21481 41005 ft 420 kts 43°
2026-04-30 09:41 20.76253 50.25763 41001 ft 418 kts 43°
2026-04-30 09:41 20.80505 50.30054 41003 ft 421 kts 43°
2026-04-30 09:42 20.84775 50.34368 41007 ft 423 kts 43°
2026-04-30 09:42 20.89029 50.38668 41008 ft 424 kts 43°
2026-04-30 09:43 20.93305 50.42994 41007 ft 421 kts 43°
2026-04-30 09:43 20.97552 50.47294 41003 ft 419 kts 43°
2026-04-30 09:44 21.01784 50.51583 40999 ft 419 kts 43°
2026-04-30 09:44 21.06037 50.55896 41004 ft 421 kts 43°
2026-04-30 09:45 21.10306 50.60229 41005 ft 423 kts 43°
2026-04-30 09:45 21.14561 50.64557 41011 ft 424 kts 43°
2026-04-30 09:46 21.18829 50.68893 41008 ft 421 kts 43°
2026-04-30 09:46 21.23065 50.73205 41003 ft 419 kts 43°
2026-04-30 09:47 21.27287 50.77505 41000 ft 420 kts 43°
2026-04-30 09:47 21.31534 50.81835 41005 ft 422 kts 43°
2026-04-30 09:48 21.35772 50.86159 41007 ft 424 kts 43°
2026-04-30 09:48 21.40046 50.90519 41010 ft 422 kts 43°
2026-04-30 09:49 21.44295 50.94863 41005 ft 420 kts 43°
2026-04-30 09:49 21.48520 50.99184 41002 ft 418 kts 43°
2026-04-30 09:50 21.52709 51.03472 40999 ft 419 kts 43°
2026-04-30 09:50 21.56945 51.07811 41004 ft 422 kts 43°
2026-04-30 09:51 21.61205 51.12180 41009 ft 423 kts 43°
2026-04-30 09:51 21.65464 51.16550 41010 ft 422 kts 43°
2026-04-30 09:52 21.68990 51.20173 41004 ft 420 kts 43°
2026-04-30 09:52 21.73846 51.25164 40990 ft 409 kts 43°
2026-04-30 09:53 21.77300 51.28717 40997 ft 415 kts 43°
2026-04-30 09:53 21.81500 51.33042 41007 ft 419 kts 44°
2026-04-30 09:54 21.85697 51.37367 41007 ft 415 kts 44°
2026-04-30 09:54 21.89858 51.41659 41000 ft 413 kts 44°
2026-04-30 09:55 21.94000 51.45934 41002 ft 415 kts 44°
2026-04-30 09:55 21.98185 51.50258 41007 ft 417 kts 44°
2026-04-30 09:56 22.02380 51.54596 41007 ft 419 kts 44°
2026-04-30 09:56 22.06581 51.58944 41004 ft 416 kts 44°
2026-04-30 09:57 22.10749 51.63261 41003 ft 414 kts 44°
2026-04-30 09:57 22.14905 51.67569 41000 ft 413 kts 44°
2026-04-30 09:58 22.19056 51.71877 41002 ft 415 kts 44°
2026-04-30 09:58 22.23230 51.76211 41006 ft 417 kts 44°
2026-04-30 09:59 22.31590 51.84904 41006 ft 416 kts 44°
2026-04-30 10:00 22.37823 51.91395 41002 ft 413 kts 44°
2026-04-30 10:01 22.44013 51.97850 41000 ft 415 kts 44°
2026-04-30 10:02 22.50277 52.04391 41007 ft 418 kts 44°
2026-04-30 10:02 22.54456 52.08759 41010 ft 417 kts 44°
2026-04-30 10:03 22.58617 52.13113 41005 ft 415 kts 44°
2026-04-30 10:03 22.62748 52.17438 41001 ft 413 kts 44°
2026-04-30 10:04 22.66890 52.21781 41000 ft 414 kts 44°
2026-04-30 10:04 22.71035 52.26129 41003 ft 415 kts 44°
2026-04-30 10:05 22.75177 52.30478 41005 ft 416 kts 44°
2026-04-30 10:05 22.79326 52.34839 41006 ft 417 kts 44°
2026-04-30 10:06 22.83488 52.39217 41007 ft 418 kts 44°
2026-04-30 10:06 22.87673 52.43622 41009 ft 419 kts 44°
2026-04-30 10:07 22.91848 52.48022 41011 ft 419 kts 44°
2026-04-30 10:07 22.96028 52.52431 41009 ft 420 kts 44°
2026-04-30 10:08 23.00238 52.56875 41011 ft 420 kts 44°
2026-04-30 10:08 23.04396 52.61268 41013 ft 420 kts 44°
2026-04-30 10:09 23.08595 52.65709 40570 ft 417 kts 44°
2026-04-30 10:09 23.10643 52.67877 40206 ft 404 kts 44°
2026-04-30 10:09 23.12641 52.69992 39840 ft 397 kts 44°
2026-04-30 10:09 23.14633 52.72102 39488 ft 405 kts 44°
2026-04-30 10:10 23.16674 52.74264 39157 ft 412 kts 44°
2026-04-30 10:10 23.18708 52.76422 38829 ft 416 kts 44°
2026-04-30 10:10 23.20782 52.78621 38491 ft 416 kts 44°
2026-04-30 10:10 23.22855 52.80822 38149 ft 415 kts 44°
2026-04-30 10:11 23.24924 52.83018 37803 ft 415 kts 44°
2026-04-30 10:11 23.26986 52.85209 37459 ft 414 kts 44°
2026-04-30 10:11 23.29040 52.87390 37111 ft 413 kts 44°
2026-04-30 10:11 23.31094 52.89575 36764 ft 412 kts 44°
2026-04-30 10:12 23.33142 52.91752 36419 ft 412 kts 44°
2026-04-30 10:12 23.35192 52.93934 36074 ft 413 kts 44°
2026-04-30 10:12 23.37243 52.96118 35731 ft 414 kts 44°
2026-04-30 10:12 23.39307 52.98317 35386 ft 414 kts 44°
2026-04-30 10:13 23.41367 53.00511 35040 ft 415 kts 44°
2026-04-30 10:13 23.43411 53.02691 34699 ft 416 kts 44°
2026-04-30 10:13 23.45482 53.04898 34353 ft 416 kts 44°
2026-04-30 10:13 23.47551 53.07107 34006 ft 417 kts 44°
2026-04-30 10:14 23.49622 53.09317 33658 ft 417 kts 44°
2026-04-30 10:14 23.51700 53.11537 33315 ft 418 kts 44°
2026-04-30 10:14 23.55865 53.15988 32620 ft 419 kts 44°
2026-04-30 10:15 23.57946 53.18214 32276 ft 420 kts 44°
2026-04-30 10:15 23.60034 53.20447 31930 ft 420 kts 44°
2026-04-30 10:15 23.62099 53.22659 31588 ft 421 kts 44°
2026-04-30 10:15 23.64191 53.24900 31242 ft 422 kts 44°
2026-04-30 10:16 23.66289 53.27148 30896 ft 422 kts 44°
2026-04-30 10:16 23.68387 53.29397 30548 ft 423 kts 44°
2026-04-30 10:16 23.70488 53.31649 30202 ft 424 kts 44°
2026-04-30 10:17 23.74697 53.36168 29508 ft 425 kts 44°
2026-04-30 10:17 23.78919 53.40703 28814 ft 426 kts 44°
2026-04-30 10:17 23.81031 53.42975 28468 ft 427 kts 44°
2026-04-30 10:18 23.83147 53.45250 28121 ft 427 kts 44°
2026-04-30 10:18 23.85245 53.47510 27776 ft 428 kts 44°
2026-04-30 10:18 23.87368 53.49793 27430 ft 429 kts 44°
2026-04-30 10:19 23.91593 53.54346 26730 ft 423 kts 44°
2026-04-30 10:19 23.93688 53.56606 26380 ft 420 kts 44°
2026-04-30 10:19 23.95765 53.58846 26029 ft 418 kts 44°
2026-04-30 10:19 23.97833 53.61078 25677 ft 416 kts 44°
2026-04-30 10:20 23.99888 53.63298 25328 ft 414 kts 44°
2026-04-30 10:20 24.03969 53.67707 24629 ft 410 kts 44°
2026-04-30 10:20 24.05992 53.69897 24277 ft 408 kts 44°
2026-04-30 10:21 24.07870 53.71926 23948 ft 406 kts 44°
2026-04-30 10:21 24.09843 53.74063 23608 ft 404 kts 44°
2026-04-30 10:21 24.11837 53.76219 23263 ft 401 kts 44°
2026-04-30 10:21 24.13817 53.78368 22919 ft 399 kts 44°
2026-04-30 10:22 24.15786 53.80500 22568 ft 397 kts 44°
2026-04-30 10:22 24.17745 53.82625 22218 ft 395 kts 44°
2026-04-30 10:22 24.19692 53.84736 21869 ft 393 kts 44°
2026-04-30 10:22 24.21634 53.86845 21517 ft 391 kts 44°
2026-04-30 10:23 24.23563 53.88940 21166 ft 389 kts 44°
2026-04-30 10:23 24.25479 53.91020 20816 ft 387 kts 44°
2026-04-30 10:23 24.27385 53.93092 20465 ft 385 kts 44°
2026-04-30 10:23 24.29283 53.95154 20104 ft 383 kts 44°
2026-04-30 10:24 24.31164 53.97203 19765 ft 381 kts 44°
2026-04-30 10:24 24.33042 53.99243 19414 ft 379 kts 44°
2026-04-30 10:24 24.34881 54.01248 19068 ft 377 kts 45°
2026-04-30 10:24 24.36739 54.03270 18718 ft 375 kts 44°
2026-04-30 10:25 24.38583 54.05280 18367 ft 373 kts 45°
2026-04-30 10:25 24.40419 54.07281 18010 ft 371 kts 44°
2026-04-30 10:25 24.42242 54.09270 17668 ft 369 kts 45°
2026-04-30 10:25 24.44055 54.11248 17317 ft 367 kts 44°
2026-04-30 10:26 24.45863 54.13220 16966 ft 365 kts 45°
2026-04-30 10:26 24.47659 54.15183 16616 ft 363 kts 45°
2026-04-30 10:26 24.49452 54.17139 16264 ft 361 kts 45°
2026-04-30 10:26 24.51228 54.19083 15914 ft 359 kts 45°
2026-04-30 10:27 24.52975 54.20991 15568 ft 357 kts 45°
2026-04-30 10:27 24.54734 54.22917 15217 ft 356 kts 45°
2026-04-30 10:27 24.56484 54.24831 14866 ft 354 kts 45°
2026-04-30 10:27 24.58227 54.26740 14508 ft 352 kts 45°
2026-04-30 10:28 24.59955 54.28633 14163 ft 350 kts 45°
2026-04-30 10:28 24.61670 54.30521 13823 ft 348 kts 45°
2026-04-30 10:28 24.63392 54.32398 13468 ft 346 kts 44°
2026-04-30 10:28 24.65097 54.34263 13121 ft 345 kts 45°
2026-04-30 10:29 24.66762 54.36094 12997 ft 340 kts 45°
2026-04-30 10:29 24.68448 54.37945 13000 ft 343 kts 45°
2026-04-30 10:29 24.70131 54.39795 13000 ft 342 kts 45°
2026-04-30 10:29 24.71825 54.41652 13002 ft 345 kts 45°
2026-04-30 10:30 24.73519 54.43516 13003 ft 343 kts 45°
2026-04-30 10:30 24.75207 54.45369 13002 ft 342 kts 45°
2026-04-30 10:30 24.76895 54.47227 13001 ft 343 kts 45°
2026-04-30 10:30 24.78434 54.48919 13002 ft 344 kts 45°
2026-04-30 10:31 24.80135 54.50791 13003 ft 345 kts 45°
2026-04-30 10:31 24.81832 54.52661 13003 ft 343 kts 45°
2026-04-30 10:31 24.83522 54.54520 13002 ft 342 kts 45°
2026-04-30 10:31 24.85202 54.56374 13001 ft 342 kts 45°
2026-04-30 10:32 24.86891 54.58232 13001 ft 344 kts 45°
2026-04-30 10:32 24.88584 54.60102 13002 ft 345 kts 45°
2026-04-30 10:32 24.90255 54.61943 13003 ft 344 kts 45°
2026-04-30 10:32 24.91975 54.63842 12467 ft 359 kts 43°
2026-04-30 10:33 24.93846 54.65698 12591 ft 363 kts 33°
2026-04-30 10:33 24.95922 54.67260 12711 ft 367 kts 32°
2026-04-30 10:33 24.97998 54.68907 12831 ft 369 kts 33°
2026-04-30 10:33 25.00084 54.70570 12962 ft 370 kts 33°
2026-04-30 10:34 25.02196 54.72209 13015 ft 371 kts 32°
2026-04-30 10:34 25.04303 54.73848 13014 ft 370 kts 32°
2026-04-30 10:34 25.06394 54.75489 13014 ft 369 kts 33°
2026-04-30 10:34 25.08487 54.77131 13013 ft 370 kts 32°
2026-04-30 10:35 25.10589 54.78779 13019 ft 371 kts 32°
2026-04-30 10:35 25.12700 54.80431 13019 ft 373 kts 32°
2026-04-30 10:35 25.14785 54.82070 13020 ft 372 kts 33°
2026-04-30 10:35 25.16823 54.83837 13002 ft 373 kts 38°
2026-04-30 10:36 25.18802 54.85712 12840 ft 374 kts 38°
2026-04-30 10:36 25.20775 54.87557 12626 ft 371 kts 37°
2026-04-30 10:36 25.22754 54.89386 12386 ft 371 kts 37°
2026-04-30 10:36 25.24727 54.91223 12136 ft 370 kts 38°
2026-04-30 10:37 25.26687 54.93057 11892 ft 367 kts 38°
2026-04-30 10:37 25.28432 54.95114 11638 ft 369 kts 51°
2026-04-30 10:37 25.29770 54.97540 11386 ft 371 kts 63°
2026-04-30 10:37 25.30853 55.00122 11139 ft 370 kts 64°
2026-04-30 10:38 25.31967 55.02685 10900 ft 369 kts 63°
2026-04-30 10:38 25.32697 55.04380 10735 ft 368 kts 64°
2026-04-30 10:38 25.33487 55.07065 10468 ft 368 kts 78°
2026-04-30 10:38 25.33761 55.09865 10222 ft 366 kts 91°
2026-04-30 10:39 25.33513 55.12649 9979 ft 362 kts 103°
2026-04-30 10:39 25.32774 55.15282 9734 ft 357 kts 115°
2026-04-30 10:39 25.31608 55.17646 9470 ft 351 kts 127°
2026-04-30 10:39 25.30073 55.19715 9230 ft 347 kts 136°
2026-04-30 10:40 25.28448 55.21691 8996 ft 348 kts 135°
2026-04-30 10:40 25.26839 55.23686 8758 ft 346 kts 135°
2026-04-30 10:40 25.25223 55.25668 8525 ft 345 kts 135°
2026-04-30 10:40 25.23615 55.27634 8292 ft 344 kts 135°
2026-04-30 10:41 25.22014 55.29596 8064 ft 341 kts 134°
2026-04-30 10:41 25.20435 55.31538 7829 ft 339 kts 134°
2026-04-30 10:41 25.18892 55.33456 7599 ft 338 kts 131°
2026-04-30 10:41 25.17620 55.35643 7371 ft 338 kts 122°
2026-04-30 10:42 25.16387 55.37850 7144 ft 336 kts 124°
2026-04-30 10:42 25.15121 55.40008 6998 ft 333 kts 124°
2026-04-30 10:42 25.13891 55.42189 7002 ft 335 kts 123°
2026-04-30 10:42 25.12672 55.44371 7005 ft 334 kts 123°
2026-04-30 10:43 25.11435 55.46548 7009 ft 332 kts 123°
2026-04-30 10:43 25.10220 55.48698 7010 ft 337 kts 123°
2026-04-30 10:43 25.09004 55.50896 7012 ft 336 kts 123°
2026-04-30 10:43 25.07777 55.53106 7021 ft 338 kts 123°
2026-04-30 10:44 25.06543 55.55313 7019 ft 339 kts 123°
2026-04-30 10:44 25.05305 55.57516 7023 ft 336 kts 123°
2026-04-30 10:44 25.04066 55.59724 7019 ft 339 kts 123°
2026-04-30 10:44 25.02839 55.61937 7019 ft 342 kts 123°
2026-04-30 10:45 25.01608 55.64175 7027 ft 336 kts 123°
2026-04-30 10:45 25.00387 55.66388 7031 ft 335 kts 123°
2026-04-30 10:45 24.99165 55.68571 7026 ft 338 kts 124°
2026-04-30 10:45 24.97921 55.70771 7025 ft 337 kts 123°
2026-04-30 10:46 24.96684 55.72980 7025 ft 339 kts 123°
2026-04-30 10:46 24.95566 55.75220 7010 ft 338 kts 111°
2026-04-30 10:46 24.95358 55.77776 7011 ft 332 kts 80°
2026-04-30 10:46 24.96286 55.80107 7008 ft 337 kts 50°
2026-04-30 10:47 24.98078 55.81695 7012 ft 328 kts 21°
2026-04-30 10:47 25.00273 55.82165 7011 ft 318 kts 354°
2026-04-30 10:47 25.02315 55.81430 7012 ft 306 kts 323°
2026-04-30 10:47 25.03718 55.79703 6918 ft 306 kts 295°
2026-04-30 10:48 25.04345 55.77493 6555 ft 301 kts 282°
2026-04-30 10:48 25.04780 55.75218 6019 ft 301 kts 282°
2026-04-30 10:48 25.05280 55.73075 5461 ft 284 kts 287°
2026-04-30 10:48 25.05944 55.71102 5071 ft 263 kts 297°
2026-04-30 10:49 25.06848 55.69423 5009 ft 254 kts 306°
2026-04-30 10:49 25.07806 55.67862 4985 ft 234 kts 304°
2026-04-30 10:49 25.08661 55.66362 4593 ft 227 kts 302°
2026-04-30 10:49 25.09466 55.64895 4191 ft 221 kts 302°
2026-04-30 10:50 25.10259 55.63467 3798 ft 215 kts 304°
2026-04-30 10:50 25.11090 55.62123 3410 ft 210 kts 306°
2026-04-30 10:50 25.11907 55.60804 3086 ft 205 kts 306°
2026-04-30 10:50 25.12651 55.59523 2989 ft 194 kts 296°
2026-04-30 10:51 25.12667 55.57992 3006 ft 212 kts 261°
2026-04-30 10:51 25.12783 55.56518 3000 ft 186 kts 303°
2026-04-30 10:51 25.13718 55.55603 3006 ft 178 kts 323°
2026-04-30 10:51 25.14624 55.54752 3033 ft 154 kts 313°
2026-04-30 10:52 25.15215 55.53880 2978 ft 129 kts 306°
2026-04-30 10:52 25.15668 55.53126 2926 ft 110 kts 305°
2026-04-30 10:52 25.16091 55.52408 2605 ft 115 kts 304°
2026-04-30 10:52 25.16504 55.51680 2340 ft 108 kts 304°
2026-04-30 10:53 25.16894 55.50958 2033 ft 127 kts 303°
2026-04-30 10:53 25.17340 55.50127 1853 ft 121 kts 303°
2026-04-30 10:53 25.17800 55.49366 1567 ft 122 kts 307°
2026-04-30 10:53 25.18303 55.48568 1196 ft 127 kts 304°
2026-04-30 10:54 25.18793 55.47751 866 ft 144 kts 303°
2026-04-30 10:54 25.19394 55.46757 1016 ft 154 kts 303°
2026-04-30 10:54 25.19888 55.45864 870 ft 128 kts 303°
2026-04-30 10:54 25.20368 55.45058 890 ft 133 kts 305°
2026-04-30 10:55 25.20864 55.44199 801 ft 127 kts 304°
2026-04-30 10:55 25.21337 55.43374 682 ft 135 kts 303°
2026-04-30 10:55 25.21863 55.42458 699 ft 131 kts 304°
2026-04-30 10:55 25.22347 55.41655 484 ft 125 kts 303°
2026-04-30 10:56 25.22819 55.40853 359 ft 123 kts 303°
2026-04-30 10:56 25.23258 55.40064 197 ft 117 kts 303°
2026-04-30 10:56 25.23682 55.39321 39 ft 108 kts 302°
2026-04-30 10:56 25.24050 55.38645 18 ft 93 kts 302°
2026-04-30 10:57 25.24367 55.38105 18 ft 77 kts 303°
2026-04-30 10:57 25.24587 55.37656 18 ft 56 kts 287°
2026-04-30 10:57 25.24633 55.37273 18 ft 47 kts 290°
2026-04-30 10:57 25.24719 55.37076 18 ft 25 kts 300°
2026-04-30 10:58 25.24807 55.36926 18 ft 22 kts 288°
2026-04-30 10:58 25.24709 55.36817 18 ft 22 kts 213°
2026-04-30 10:58 25.24583 55.36730 18 ft 20 kts 213°
2026-04-30 10:58 25.24469 55.36646 18 ft 19 kts 220°
2026-04-30 10:59 25.24386 55.36553 18 ft 3 kts 239°